Regional Weather Roundup
Issued by NWS Grand Forks, ND

Home | Current Version | Previous Version | Graphics & Text | Print | Product List | Glossary On
Versions: 1 2 3 4 5 6 7 8 9 10 11 12 13 14 15 16 17 18 19 20 21 22 23 24 25 26 27 28 29 30 31 32 33 34 35 36 37 38 39 40 41 42 43 44 45 46 47 48 49 50
000
ASUS43 KFGF 261031
RWRFGF
PRAIRIE TO PINES  WEATHER ROUNDUP
NATIONAL WEATHER SERVICE EASTERN NORTH DAKOTA/GRAND FORKS ND
500 AM CDT SUN MAR 26 2017

 **SATELLITE DATA USED TO AUGMENT SKY COVER AT AUTOMATED STATIONS**
 *****  WEATHER ACROSS EASTERN NORTH DAKOTA  *****

CITY           SKY/WX    TMP DP  RH WIND       PRES   REMARKS
GRAND FORKS    CLOUDY    35  34  96 S8        29.96F
GRAND FRKS AFB CLOUDY    34  32  93 S9        29.96S
DEVILS LAKE    CLOUDY    34  32  92 SE6       29.93F
FARGO          CLOUDY    34  33  96 CALM      29.98F
WAHPETON ARPT    N/A     34  32  93 CALM      29.98F
$$

 ***** WEATHER ACROSS CENTRAL AND WESTERN NORTH DAKOTA  *****

CITY           SKY/WX    TMP DP  RH WIND       PRES   REMARKS
BISMARCK       CLOUDY    38  34  85 SE5       29.93F
MINOT          MOCLDY    39  34  82 W5        29.89F
JAMESTOWN      FOG       33  33 100 S5        29.93F VSB 1/4
MINOT AFB      FAIR      34  32  94 W6        29.88F
GARRISON         N/A     36  32  85 CALM      29.89F
WILLISTON      FAIR      42  33  70 CALM      29.89F
DICKINSON      CLOUDY    41  36  82 SE7       29.88F
HETTINGER      MOCLDY    38  32  79 N3        29.90S
$$

 *****  OTHER AIRPORT OBSERVATIONS IN OUR AREA  *****

CITY           SKY/WX    TMP DP  RH WIND       PRES   REMARKS
WALHALLA       NOT AVBL
GRAFTON AIRPOR FAIR      34  34 100 S9        29.97S
VALLEY CITY AR FOG       32  32 100 S5        29.97S VSB 1/4
CANDO          NOT AVBL
CAVALIER APRT    N/A     34  32  93 S6        29.93S
GWINNER        CLOUDY    34  34 100 MISG      29.96S FOG
SHEYENNE NWR     N/A     34  34 100 NE2       29.95S
ROLLA          CLOUDY    34  34 100 SW3       29.90F
 ***** THE ABOVE OBSERVATIONS ARE NON NWS ARE NOT QUALITY
       CONTROLLED AND MAY MIS-REPORT RAIN FOR SNOW...
$$

  *****  WEATHER ACROSS NORTHERN MINNESOTA  *****

CITY           SKY/WX    TMP DP  RH WIND       PRES   REMARKS
FLAG ISLAND    CLOUDY    30  28  93 S12       29.99S WCI  21
WARROAD        CLOUDY    32  28  86 SE5       29.99F
ROSEAU         MOCLDY    34  28  80 S7        29.98F
HALLOCK        FAIR      34  34 100 S10       29.95F
THF RVR FALLS    N/A     33  32  96 MISG        N/A
BAUDETTE       CLOUDY    31  28  89 S8        30.00S WCI  23
WASKISH        CLOUDY    30  28  93 CALM      30.00F
CROOKSTON      CLOUDY    34  34 100 S3        30.00R
STEPHEN NDAWN    N/A     34  32  93 S7          N/A
GREENBUSH NDAW   N/A     34  32  93 S6          N/A
$$
  *****  WEATHER ACROSS CENTRAL AND WEST MINNESOTA  *****

CITY           SKY/WX    TMP DP  RH WIND       PRES   REMARKS
FOSSTON        CLOUDY    30  28  93 SE5       29.98F
BEMIDJI        CLOUDY    31  31  98 SE3       29.99F
PARK RAPIDS    CLOUDY    33  28  81 CALM      29.98F
ELBOW LAKE     CLOUDY    35  33  92 CALM      29.97F
WADENA         CLOUDY    34  28  80 CALM      29.97F
DETROIT LAKES  CLOUDY    34  32  93 SE3       29.98F
MOORHEAD       CLOUDY    34  32  93 SE3       29.99F FOG
FERGUS FALLS   CLOUDY    36  30  80 CALM      30.01F
MORRIS MN      CLOUDY    36  36 100 NE5       29.95F
STAPLES        CLOUDY    32  28  86 CALM      29.98S
$$
  *****  WEATHER ELSEWHERE ACROSS MINNESOTA  *****

CITY           SKY/WX    TMP DP  RH WIND       PRES   REMARKS
DULUTH         FRZ DRZL  31  31 100 E10       29.99F FOG     WCI  22
INTRNTL FALLS  CLOUDY    31  28  89 SE7       30.02F WCI  24
ELY            CLOUDY    30  28  93 CALM      30.01F
CLOQUET        MIX PCPN  32  30  93 E5        29.99F
WHEATON        CLOUDY    36  34  93 N5        29.99S
BRAINERD       CLOUDY    33  29  85 NE5       29.99F
HIBBING        CLOUDY    30  30 100 E3        30.00F
ALEXANDRIA     CLOUDY    35  30  82 E7        29.96F
SAINT CLOUD    CLOUDY    34  31  88 NE6       29.96S
MINNEAPOLIS    DRIZZLE   37  33  85 E7        29.94F
$$

  *****  WEATHER ACROSS SOUTH DAKOTA  *****

CITY           SKY/WX    TMP DP  RH WIND       PRES   REMARKS
SIOUX FALLS    CLOUDY    38  37  97 NE5       29.91S FOG
BROOKINGS      FOG       36  36 100 NE3       29.91S VSB 1
WATERTOWN      CLOUDY    35  34  96 CALM      29.92S
HURON          CLOUDY    39  38  96 E3        29.92F
SISSETON         N/A     35  35 100 CALM      29.95F
ABERDEEN       CLOUDY    35  33  92 E3        29.95F FOG
MITCHELL       CLOUDY    39  38  96 E3        29.93S FOG
PIERRE         CLOUDY    40  36  86 SE10      29.88F
MOBRIDGE       CLOUDY    39  35  86 SE3       29.89F
RAPID CITY     LGT RAIN  43  34  70 NW6       29.84S
$$

  *****  SOME WEATHER IN NEARBY STATES *****

CITY           SKY/WX    TMP DP  RH WIND       PRES   REMARKS
GLASGOW MT     FAIR      36  26  67 SE6       29.86F
GREAT FALLS MT FAIR      35  23  61 S12       29.91F
CHEYENNE WY    MOCLDY    41  34  76 E7        29.82F
SCOTTSBLUFF NE FAIR      41  30  65 E7        29.80S
OMAHA NE       CLOUDY    40  37  89 N7        29.89S FOG
DES MOINES IA  CLOUDY    42  41  96 N7        29.84S FOG
DAVENPORT IA   FOG       47  47 100 E8        29.80F VSB 1/4
CHICAGO IL     LGT RAIN  47  45  93 NE6       29.86F FOG
EAU CLAIRE WI  CLOUDY    35  34  96 NE7       29.95F FOG
LA CROSSE WI   LGT RAIN  38  36  92 NE6       29.92S
$$

  *****  SOME NATIONAL WEATHER *****

CITY           SKY/WX    TMP DP  RH WIND       PRES   REMARKS
LA GUARDIA NY  CLOUDY    40  33  76 NE17      30.42R
RALEIGH NC     FAIR      54  51  90 CALM      30.21R
ATLANTA GA     FAIR      59  58  96 SE6       30.08R
NEW ORLEANS LA CLOUDY    67  66  97 CALM      29.97S
OKLAHOMA CITY  FAIR      44  41  89 E8        29.86F
ALBUQUERQUE NM FAIR      41  29  62 E6        29.93F
SALT LAKE CITY FAIR      36  36 100 SE5       30.02S
LOS ANGELES CA MOCLDY    56  54  93 S3        30.02F
BOISE ID       FAIR      40  29  64 SE10      29.97F
SEATTLE WA     CLOUDY    44  39  82 E3        29.96F
$$

*** WEATHER ACROSS MANITOBA...SASKATCHEWAN AND ONTARIO ***
                ***ONTARIO***

CITY           SKY/WX    TMP DP  RH WIND       PRES   REMARKS
GERALDTON      PTCLDY    21   7  53 E5        30.14F WCI  15
THUNDER BAY    CLOUDY    34  28  80 NE7       30.08F
SIOUX LOOKOUT  CLOUDY    30  23  74 S5        30.01F
TORONTO        CLOUDY    34  32  93 E12G17    30.24F
BIG TROUT LK   CLOUDY    28  12  50 S14       29.94F WCI  17
PICKLE LAKE    NOT AVBL
DRYDEN         CLOUDY    30  27  86 S6        30.00F WCI  24
KENORA         MOCLDY    30  27  86 S9        29.98F WCI  22
$$
                *** MANITOBA***

CITY           SKY/WX    TMP DP  RH WIND       PRES   REMARKS
BRANDON        MOCLDY    32  30  93 W2        29.90F
DAUPHIN        MOCLDY    34  30  86 W6        29.91R
ISLAND LAKE    CLOUDY    36  30  80 S8G18     29.79S
PILOT MOUND      N/A     32  32 100 S5          N/A
THE PAS        MOCLDY    16  12  86 NW9       29.91R WCI   4
THOMPSON       HAIL      23  21  93 W14G21    29.75R WCI  11
WINNIPEG       CLOUDY    34  32  93 S12       29.93F
LYNN LAKE      MOCLDY    12  10  92 NW9       29.85R WCI   0
CHURCHILL      LGT SNOW  14  12  92 E15G21    29.96F DRFTSNOWWCI  -1
GILLAM         LGT SNOW  27  25  93 E5        29.73F VSB 1   WCI  21
$$
                ***SASKATCHEWAN***

CITY           SKY/WX    TMP DP  RH WIND       PRES   REMARKS
ESTEVAN        MOCLDY    34  32  93 SE7       29.88F
KINDERSLEY     CLEAR     28  25  86 S6        29.76F WCI  22
LLOYDMINSTER   PTCLDY    25  25 100 E8        29.81S FOG     WCI  16
PRINCE ALBERT  CLOUDY    30  27  86 E8        29.88F WCI  23
REGINA         PTCLDY    34  32  93 SE7       29.86S
YORKTON        CLOUDY    32  30  93 CALM      29.87F
N. BATTLEFORD  CLEAR     28 N/A N/A SE6       29.86F WCI  22
LA RONGE       CLOUDY    16  14  93 VRB2      29.92R
SASKATOON      PTCLDY    30  28  93 E12       29.85F WCI  21
SWIFT CURRENT  CLEAR     32  23  69 SW14      29.83S WCI  22
$$
NOTE: THESE ARE AUTOMATED STATIONS WITH LIMITED QUALITY CONTROL
      "FAIR" INDICATES FEW OR NO CLOUDS BELOW 12,000 FEET WITH NO
      SIGNIFICANT WEATHER AND/OR OBSTRUCTIONS TO VISIBILITY.
      SKY/WX - SKY CONDITION AND SIGNIFICANT WEATHER.
      TMP - AIR TEMPERATURE.    DP   - DEWPOINT TEMPERATURE.
      RH  - RELATIVE HUMIDITY.  PRES - PRESSURE.
      HX  - HEAT INDEX.         WCI  - WIND CHILL INDEX.
$




USA.gov is the U.S. government's official web portal to all federal, state and local government web resources and services.